Weather History for Brookings, OR

Change the Weather History Date:

Wednesday, February 13, 2013

  Actual Average Record
Temperature  
Mean Temperature 49 °F -  
Max Temperature 59 °F 56 °F 75 °F (1943)
Min Temperature 39 °F 41 °F 28 °F (1949)
Degree Days  
Heating Degree Days 16    
Moisture  
Dew Point 45 °F    
Average Humidity 81    
Maximum Humidity 100    
Minimum Humidity 64    
Precipitation  
Precipitation 0.00 in - - ()
Sea Level Pressure  
Sea Level Pressure 30.42 in    
Wind  
Wind Speed 3 mph (NNW)    
Max Wind Speed 12 mph    
Max Gust Speed -    
Visibility 10 miles    
Events      
Averages and records for this station are not official NWS values.
T = Trace of Precipitation, MM = Missing Value Source: NWS Daily Summary

Daily Weather History Graph

Daily Weather History Graph

Search for Another Location

Airport:

Trip Planner

Search our weather history database for the weather conditions in past years. The results will help you decide how hot, cold, wet, or windy it might be!

Date:

Astronomy

Feb. 13, 2013 Rise Set
Actual Time 7:15 AM PST 5:47 PM PST
Civil Twilight 6:46 AM PST 6:16 PM PST
Nautical Twilight 6:13 AM PST 6:49 PM PST
Astronomical Twilight 5:41 AM PST 7:21 PM PST
Moon 8:42 AM PST (2/13) 10:02 PM PST (2/13)
Length of Visible Light 11h 30m
Length of Day
10h 32m
Waxing Crescent, 14% of the Moon is Illuminated
Feb 13
Waxing Crescent
Feb 17
First Quarter
Feb 25
Full
Mar 4
Last Quarter
Mar 11
New

Hourly Weather History & Observations

Time (PST) Temp. Windchill Dew Point Humidity Pressure Visibility Wind Dir Wind Speed Gust Speed Precip Events Conditions
12:56 AM 45.9 °F - 41.9 °F 86% 30.44 in 10.0 mi Calm Calm - N/A   Clear
1:56 AM 45.0 °F 43.5 °F 43.0 °F 93% 30.43 in 10.0 mi East 3.5 mph - N/A   Clear
2:56 AM 41.9 °F 40.0 °F 41.9 °F 100% 30.43 in 10.0 mi East 3.5 mph - N/A   Clear
3:56 AM - - - N/A% - - North - - N/A   Unknown
4:56 AM 39.9 °F - 39.9 °F 100% 30.43 in 10.0 mi Calm Calm - N/A   Unknown
5:56 AM 39.9 °F - 39.9 °F 100% 30.42 in 10.0 mi Calm Calm - N/A   Clear
6:56 AM 39.9 °F - 39.9 °F 100% 30.43 in 10.0 mi Calm Calm - N/A   Clear
7:56 AM 39.9 °F - 39.9 °F 100% 30.44 in 10.0 mi Calm Calm - N/A   Clear
8:56 AM 46.9 °F - 43.9 °F 89% - - North - - N/A   Unknown
9:56 AM 50.9 °F - 45.9 °F 83% 30.45 in 10.0 mi WNW 5.8 mph - N/A   Clear
10:56 AM 52.9 °F - 45.9 °F 77% 30.45 in 10.0 mi Calm Calm - N/A   Clear
11:56 AM 54.9 °F - 43.0 °F 64% 30.44 in 10.0 mi Calm Calm - N/A   Clear
12:56 PM 59.9 °F - 48.9 °F 67% 30.41 in 9.0 mi West 9.2 mph - N/A   Clear
1:56 PM 59.0 °F - 48.9 °F 69% 30.39 in 10.0 mi NW 11.5 mph - N/A   Clear
2:56 PM 59.9 °F - 48.9 °F 67% 30.39 in 10.0 mi NW 10.4 mph - N/A   Clear
3:56 PM 57.9 °F - 48.9 °F 72% 30.38 in 10.0 mi NNW 11.5 mph - N/A   Clear
4:56 PM 56.8 °F - 50.0 °F 78% 30.38 in 10.0 mi NNW 6.9 mph - N/A   Clear
5:56 PM 55.9 °F - 48.9 °F 77% 30.39 in 10.0 mi NNW 6.9 mph - N/A   Clear
6:56 PM 54.9 °F - 45.9 °F 72% 30.40 in 10.0 mi North 4.6 mph - N/A   Clear
7:56 PM 55.9 °F - 45.0 °F 67% 30.42 in 10.0 mi Variable 6.9 mph - N/A   Clear
8:56 PM 54.9 °F - 43.9 °F 66% 30.43 in 10.0 mi North 6.9 mph - N/A   Clear
9:56 PM 54.0 °F - 43.9 °F 69% 30.43 in 10.0 mi North 8.1 mph - N/A   Clear
10:56 PM 50.0 °F - 45.0 °F 83% 30.45 in 10.0 mi North 3.5 mph - N/A   Clear
11:56 PM 50.9 °F - 43.9 °F 77% 30.44 in 10.0 mi North 6.9 mph - N/A   Clear